Weather History for North Platte, NE

Change the Weather History Date:

Tuesday, May 21, 2013

  Actual Average Record
Temperature  
Mean Temperature 54 °F 60 °F  
Max Temperature 61 °F 73 °F 94 °F (1927)
Min Temperature 46 °F 46 °F 30 °F (1963)
Degree Days  
Heating Degree Days 11 6  
Month to date heating degree days 206 193  
Since 1 July heating degree days 6692 6583  
Cooling Degree Days 0 1  
Month to date cooling degree days 25 11  
Year to date cooling degree days 26 14  
Growing Degree Days 4 (Base 50)    
Moisture  
Dew Point 42 °F    
Average Humidity 69    
Maximum Humidity 86    
Minimum Humidity 51    
Precipitation  
Precipitation T in 0.11 in 1.64 in (1949)
Month to date precipitation 1.81 2.09  
Year to date precipitation 4.85 6.25  
Snow  
Snow 0.00 in 0.00 in 0.00 in ()
Month to date snowfall 0.9 0.0  
Since 1 July snowfall 30.2 28.5  
Snow Depth 0.00 in    
Sea Level Pressure  
Sea Level Pressure 29.83 in    
Wind  
Wind Speed 18 mph (NW)    
Max Wind Speed 33 mph    
Max Gust Speed 41 mph    
Visibility 10 miles    
Events      
T = Trace of Precipitation, MM = Missing Value Source: NWS Daily Summary

Daily Weather History Graph

Daily Weather History Graph

Search for Another Location

Airport:

Trip Planner

Search our weather history database for the weather conditions in past years. The results will help you decide how hot, cold, wet, or windy it might be!

Date:

Astronomy

May. 21, 2013 Rise Set
Actual Time 6:19 AM CDT 9:00 PM CDT
Civil Twilight 5:47 AM CDT 9:32 PM CDT
Nautical Twilight 5:07 AM CDT 10:12 PM CDT
Astronomical Twilight 4:21 AM CDT 10:58 PM CDT
Moon 5:14 PM CDT (5/21) 3:50 AM CDT (5/21)
Length of Visible Light 15h 45m
Length of Day
14h 41m
Waxing Gibbous, 84% of the Moon is Illuminated
May 21
Waxing Gibbous
May 24
Full
May 31
Last Quarter
Jun 8
New
Jun 16
First Quarter

Hourly Weather History & Observations

Time (CDT) Temp. Windchill Dew Point Humidity Pressure Visibility Wind Dir Wind Speed Gust Speed Precip Events Conditions
12:53 AM 50.0 °F - 45.0 °F 83% 29.78 in 10.0 mi WNW 11.5 mph - N/A   Partly Cloudy
1:53 AM 50.0 °F - 44.1 °F 80% 29.78 in 10.0 mi WNW 13.8 mph - N/A   Overcast
2:53 AM 48.9 °F - 42.1 °F 77% 29.79 in 10.0 mi NW 17.3 mph 26.5 mph N/A   Clear
3:53 AM 48.0 °F - 41.0 °F 77% 29.80 in 10.0 mi WNW 15.0 mph 23.0 mph N/A   Clear
4:53 AM 46.9 °F - 42.1 °F 83% 29.80 in 10.0 mi WNW 15.0 mph - N/A   Clear
5:53 AM 48.0 °F - 41.0 °F 77% 29.80 in 10.0 mi WNW 18.4 mph 25.3 mph N/A   Scattered Clouds
6:53 AM 48.9 °F - 39.9 °F 71% 29.82 in 10.0 mi WNW 20.7 mph 27.6 mph N/A   Mostly Cloudy
7:53 AM 50.0 °F - 41.0 °F 71% 29.84 in 10.0 mi NW 20.7 mph 29.9 mph N/A   Overcast
8:53 AM 53.1 °F - 42.1 °F 66% 29.83 in 10.0 mi WNW 20.7 mph 38.0 mph N/A   Scattered Clouds
9:53 AM 53.1 °F - 43.0 °F 69% 29.82 in 10.0 mi WNW 24.2 mph 31.1 mph N/A   Mostly Cloudy
10:53 AM 54.0 °F - 43.0 °F 66% 29.81 in 10.0 mi NW 21.9 mph 28.8 mph N/A   Overcast
11:53 AM 57.0 °F - 42.1 °F 57% 29.82 in 10.0 mi NNW 26.5 mph 38.0 mph N/A   Overcast
12:53 PM 57.0 °F - 42.1 °F 57% 29.82 in 10.0 mi NNW 26.5 mph 36.8 mph N/A   Overcast
1:53 PM 59.0 °F - 41.0 °F 51% 29.80 in 10.0 mi NNW 29.9 mph 40.3 mph N/A   Overcast
2:53 PM 61.0 °F - 43.0 °F 52% 29.81 in 10.0 mi NW 27.6 mph 39.1 mph N/A   Overcast
3:53 PM 57.9 °F - 43.0 °F 58% 29.81 in 10.0 mi NW 20.7 mph 29.9 mph N/A   Overcast
4:53 PM 57.9 °F - 42.1 °F 56% 29.81 in 10.0 mi North 19.6 mph 28.8 mph N/A   Overcast
5:53 PM 57.0 °F - 42.1 °F 57% 29.82 in 10.0 mi NNW 19.6 mph 27.6 mph N/A   Overcast
6:53 PM 55.0 °F - 42.1 °F 62% 29.84 in 10.0 mi NNW 16.1 mph 25.3 mph N/A   Overcast
7:53 PM 54.0 °F - 42.1 °F 64% 29.87 in 10.0 mi North 13.8 mph 20.7 mph N/A   Overcast
8:51 PM 51.8 °F - 42.8 °F 71% 29.89 in 10.0 mi North 15.0 mph - 0.00 in   Overcast
8:53 PM 52.0 °F - 43.0 °F 71% 29.88 in 10.0 mi North 13.8 mph - 0.00 in   Overcast
9:53 PM 51.1 °F - 42.1 °F 71% 29.89 in 10.0 mi NNW 13.8 mph 20.7 mph 0.00 in   Overcast
10:53 PM 48.9 °F - 41.0 °F 74% 29.90 in 10.0 mi North 9.2 mph - N/A   Mostly Cloudy
11:03 PM 48.2 °F - 41.0 °F 76% 29.91 in 10.0 mi NNW 10.4 mph 18.4 mph N/A   Scattered Clouds
11:53 PM 46.0 °F 41.9 °F 41.0 °F 83% 29.88 in 10.0 mi NW 8.1 mph - N/A   Mostly Cloudy